Regional Weather Roundup
Issued by NWS

Home | Current Version | Previous Version | Text Only | Print | Product List | Glossary On
Versions: 1 2 3 4 5 6 7 8 9 10 11 12 13 14 15 16 17 18 19 20 21 22 23 24 25 26 27 28 29 30 31 32 33 34 35 36 37 38 39 40 41 42 43 44
000
ASPQ40 PGUM 271614
RWRPQ
WEATHER ROUNDUP FOR THE MARIANAS AND MICRONESIA
NATIONAL WEATHER SERVICE TIYAN GU
200 AM CHST THU MAY 28 2015

GUZ001>004-271700-
MARIANA ISLANDS-

CITY           SKY/WX    TMP DP  RH WIND       PRES   REMARKS
GUAM AIRPORT   PTCLDY    79  75  89 E5        29.83F
ANDERSEN AFB   LGT RAIN  79  75  89 E10       29.83F
ROTA AIRPORT   NOT AVBL
TINIAN AP      NOT AVBL
SAIPAN AP      LGT RAIN  77  75  94 E13G24    29.83F FOG

$$

PMZ161-271700-
REPUBLIC OF PALAU-

CITY           SKY/WX    TMP DP  RH WIND       PRES   REMARKS
KOROR AP       PTCLDY    75  73  94 N5        29.85F
KOROR WSO      PTCLDY    81  77  89 CALM      29.83F

$$

PMZ171>174-271700-
FEDERATED STATES OF MICRONESIA-

CITY           SKY/WX    TMP DP  RH WIND       PRES   REMARKS
YAP AIRPORT    PTCLDY    79  75  89 CALM      29.80F
CHUUK AP       MOCLDY    79  77  94 CALM      29.80S
POHNPEI AP     NOT AVBL
POHNPEI WSO    CLOUDY    75  75 100 SE3       29.86F
KOSRAE AP      NOT AVBL

$$

PMZ181-271700-
REPUBLIC OF THE MARSHALL ISLANDS-

CITY           SKY/WX    TMP DP  RH WIND       PRES   REMARKS
KWAJALEIN AP   MOCLDY    81  73  78 E7        29.85S
MAJURO AP      NOT AVBL
MAJURO WSO     NOT AVBL

$$



USA.gov is the U.S. government's official web portal to all federal, state and local government web resources and services.